| time (UTC) | temp C | wind direction | speed KPH | gust KPH | rain 1hr cm | rain 24hr cm | rain mn cm | humidity % | barometer mb |
| 20260505070304 | 15 | 255 | 3.2 | 9.7 | 0.00 | 0.00 | 0.00 | 74 | 1010.2 |
| 20260505065805 | 15 | 224 | 4.8 | 11.3 | 0.00 | 0.00 | 0.00 | 74 | 1010.1 |
| 20260505065304 | 15 | 186 | 4.8 | 11.3 | 0.00 | 0.00 | 0.00 | 73 | 1010.1 |
| 20260505064804 | 15 | 206 | 3.2 | 9.7 | 0.00 | 0.00 | 0.00 | 73 | 1010.1 |
| 20260505064305 | 15 | 282 | 6.4 | 17.7 | 0.00 | 0.00 | 0.00 | 72 | 1010.1 |
| 20260505063957 | 15 | 227 | 6.4 | 11.3 | 0.00 | 0.00 | 0.00 | 70 | 1010.1 |
| 20260505063913 | 15 | 162 | 8.0 | 17.7 | 0.00 | 0.00 | 0.00 | 70 | 1010.1 |
| 20260505062802 | 15 | 203 | 8.0 | 16.1 | 0.00 | 0.00 | 0.00 | 69 | 1010.2 |
| 20260505062253 | 15 | 224 | 4.8 | 16.1 | 0.00 | 0.00 | 0.00 | 69 | 1010.1 |
| 20260505061753 | 15 | 197 | 4.8 | 14.5 | 0.00 | 0.00 | 0.00 | 69 | 1010.1 |
| 20260505061251 | 15 | 196 | 6.4 | 11.3 | 0.00 | 0.00 | 0.00 | 69 | 1010.0 |
| 20260505060748 | 15 | 230 | 3.2 | 8.0 | 0.00 | 0.00 | 0.00 | 69 | 1010.1 |
| 20260505060247 | 15 | 196 | 4.8 | 8.0 | 0.00 | 0.00 | 0.00 | 69 | 1010.1 |
| 20260505055747 | 15 | 158 | 3.2 | 6.4 | 0.00 | 0.00 | 0.00 | 69 | 1010.1 |
| 20260505055246 | 15 | 235 | 3.2 | 8.0 | 0.00 | 0.00 | 0.00 | 69 | 1010.1 |
| 20260505054746 | 15 | 231 | 3.2 | 8.0 | 0.00 | 0.00 | 0.00 | 68 | 1010.2 |
| 20260505054246 | 15 | 227 | 3.2 | 8.0 | 0.00 | 0.00 | 0.00 | 67 | 1010.2 |
| 20260505053746 | 15 | 206 | 4.8 | 8.0 | 0.00 | 0.00 | 0.00 | 67 | 1010.2 |
| 20260505053244 | 15 | 224 | 3.2 | 8.0 | 0.00 | 0.00 | 0.00 | 67 | 1010.2 |
| 20260505052746 | 15 | 188 | 1.6 | 8.0 | 0.00 | 0.00 | 0.00 | 66 | 1010.2 |
| 20260505052246 | 15 | 213 | 4.8 | 8.0 | 0.00 | 0.00 | 0.00 | 66 | 1010.3 |
| 20260505051746 | 15 | 154 | 3.2 | 6.4 | 0.00 | 0.00 | 0.00 | 66 | 1010.2 |
| 20260505051350 | 15 | 213 | 3.2 | 9.7 | 0.00 | 0.00 | 0.00 | 65 | 1010.3 |
| 20260505051330 | 15 | 199 | 4.8 | 6.4 | 0.00 | 0.00 | 0.00 | 65 | 1010.2 |
| 20260505050232 | 15 | 185 | 4.8 | 9.7 | 0.00 | 0.00 | 0.00 | 64 | 1010.3 |
| 20260505041234 | 16 | 155 | 6.4 | 16.1 | 0.00 | 0.00 | 0.00 | 60 | 1010.0 |
| 20260505041051 | 16 | 196 | 6.4 | 17.7 | 0.00 | 0.00 | 0.00 | 60 | 1010.0 |
| 20260505040232 | 16 | 210 | 4.8 | 17.7 | 0.00 | 0.00 | 0.00 | 59 | 1010.0 |
| 20260505035732 | 16 | 206 | 4.8 | 9.7 | 0.00 | 0.00 | 0.00 | 58 | 1010.0 |
| 20260505035232 | 16 | 162 | 4.8 | 14.5 | 0.00 | 0.00 | 0.00 | 58 | 1010.0 |
| 20260505034915 | 16 | 203 | 4.8 | 16.1 | 0.00 | 0.00 | 0.00 | 57 | 1010.0 |
| 20260505034832 | 16 | 169 | 4.8 | 14.5 | 0.00 | 0.00 | 0.00 | 57 | 1010.0 |
| 20260505033732 | 16 | 210 | 6.4 | 16.1 | 0.00 | 0.00 | 0.00 | 56 | 1010.1 |
| 20260505033232 | 16 | 0.0 | 0.0 | 0.00 | 0.00 | 0.00 | 56 | 1010.1 | |
| 20260505033043 | 16 | 185 | 8.0 | 11.3 | 0.00 | 0.00 | 0.00 | 55 | 1010.1 |
| 20260505032525 | 16 | 185 | 8.0 | 14.5 | 0.00 | 0.00 | 0.00 | 55 | 1010.2 |
| 20260505031731 | 16 | 180 | 8.0 | 14.5 | 0.00 | 0.00 | 0.00 | 55 | 1010.1 |
| 20260505031231 | 16 | 179 | 6.4 | 16.1 | 0.00 | 0.00 | 0.00 | 53 | 1010.2 |
| 20260505030916 | 16 | 165 | 8.0 | 16.1 | 0.00 | 0.00 | 0.00 | 53 | 1010.2 |
| 20260505030839 | 16 | 202 | 4.8 | 16.1 | 0.00 | 0.00 | 0.00 | 53 | 1010.2 |
| 20260505025859 | 16 | 193 | 4.8 | 9.7 | 0.00 | 0.00 | 0.00 | 52 | 1010.1 |
| 20260505025823 | 16 | 193 | 6.4 | 14.5 | 0.00 | 0.00 | 0.00 | 52 | 1010.1 |
| 20260505024732 | 16 | 154 | 3.2 | 6.4 | 0.00 | 0.00 | 0.00 | 52 | 1010.0 |
| 20260505024231 | 16 | 178 | 4.8 | 8.0 | 0.00 | 0.00 | 0.00 | 52 | 1010.1 |
| 20260505023732 | 16 | 159 | 4.8 | 8.0 | 0.00 | 0.00 | 0.00 | 52 | 1010.2 |
| 20260505023233 | 16 | 210 | 3.2 | 11.3 | 0.00 | 0.00 | 0.00 | 52 | 1010.3 |
| 20260505022733 | 16 | 169 | 3.2 | 14.5 | 0.00 | 0.00 | 0.00 | 52 | 1010.3 |
| 20260505022232 | 16 | 214 | 6.4 | 14.5 | 0.00 | 0.00 | 0.00 | 52 | 1010.3 |
| 20260505021732 | 16 | 196 | 4.8 | 14.5 | 0.00 | 0.00 | 0.00 | 53 | 1010.4 |
| 20260505021231 | 16 | 234 | 6.4 | 14.5 | 0.00 | 0.00 | 0.00 | 52 | 1010.4 |
| 20260505020731 | 16 | 195 | 4.8 | 16.1 | 0.00 | 0.00 | 0.00 | 53 | 1010.4 |
| 20260505020232 | 16 | 214 | 3.2 | 16.1 | 0.00 | 0.00 | 0.00 | 53 | 1010.3 |
| 20260505015730 | 16 | 193 | 1.6 | 4.8 | 0.00 | 0.00 | 0.00 | 53 | 1010.4 |
| 20260505015231 | 16 | 189 | 1.6 | 6.4 | 0.00 | 0.00 | 0.00 | 52 | 1010.4 |
| 20260505014731 | 17 | 192 | 3.2 | 6.4 | 0.00 | 0.00 | 0.00 | 51 | 1010.3 |
| 20260505014232 | 17 | 189 | 1.6 | 6.4 | 0.00 | 0.00 | 0.00 | 50 | 1010.2 |
| 20260505014036 | 17 | 192 | 3.2 | 9.7 | 0.00 | 0.00 | 0.00 | 50 | 1010.1 |
| 20260505013552 | 17 | 176 | 4.8 | 9.7 | 0.00 | 0.00 | 0.00 | 50 | 1010.3 |
| 20260505012731 | 17 | 190 | 3.2 | 14.5 | 0.00 | 0.00 | 0.00 | 49 | 1010.2 |
| 20260505012231 | 17 | 200 | 6.4 | 14.5 | 0.00 | 0.00 | 0.00 | 49 | 1010.2 |
| 20260505011732 | 17 | 200 | 3.2 | 6.4 | 0.00 | 0.00 | 0.00 | 50 | 1010.2 |
| 20260505011232 | 17 | 226 | 3.2 | 6.4 | 0.00 | 0.00 | 0.00 | 49 | 1010.2 |
| 20260505010732 | 17 | 231 | 1.6 | 8.0 | 0.00 | 0.00 | 0.00 | 50 | 1010.0 |
| 20260505010232 | 17 | 220 | 4.8 | 8.0 | 0.00 | 0.00 | 0.00 | 50 | 1010.0 |
| 20260505005732 | 16 | 158 | 4.8 | 8.0 | 0.00 | 0.00 | 0.00 | 51 | 1010.0 |
| 20260505005231 | 16 | 197 | 1.6 | 4.8 | 0.00 | 0.00 | 0.00 | 52 | 1009.9 |
| 20260505005059 | 17 | 214 | 0.0 | 6.4 | 0.00 | 0.00 | 0.00 | 51 | 1009.8 |
| 20260505004417 | 17 | 193 | 3.2 | 8.0 | 0.00 | 0.00 | 0.00 | 50 | 1009.8 |
| 20260505004335 | 17 | 207 | 3.2 | 6.4 | 0.00 | 0.00 | 0.00 | 50 | 1009.8 |
| 20260505003232 | 17 | 226 | 1.6 | 8.0 | 0.00 | 0.00 | 0.00 | 48 | 1009.7 |
| 20260505002732 | 18 | 202 | 3.2 | 6.4 | 0.00 | 0.00 | 0.00 | 47 | 1009.6 |
| 20260505002232 | 18 | 197 | 1.6 | 6.4 | 0.00 | 0.00 | 0.00 | 47 | 1009.6 |
| 20260505002042 | 18 | 199 | 4.8 | 6.4 | 0.00 | 0.00 | 0.00 | 47 | 1009.6 |
| 20260505001232 | 18 | 219 | 3.2 | 8.0 | 0.00 | 0.00 | 0.00 | 46 | 1009.5 |
| 20260505000731 | 18 | 206 | 3.2 | 8.0 | 0.00 | 0.00 | 0.00 | 45 | 1009.5 |
| 20260505000233 | 18 | 166 | 3.2 | 9.7 | 0.00 | 0.00 | 0.00 | 46 | 1009.5 |
| 20260504235732 | 18 | 264 | 3.2 | 11.3 | 0.00 | 0.00 | 0.00 | 45 | 1009.4 |
| 20260504235229 | 19 | 212 | 1.6 | 11.3 | 0.00 | 0.00 | 0.00 | 45 | 1009.4 |
| 20260504234729 | 19 | 200 | 3.2 | 14.5 | 0.00 | 0.00 | 0.00 | 46 | 1009.4 |
| 20260504234229 | 19 | 161 | 6.4 | 14.5 | 0.00 | 0.00 | 0.00 | 44 | 1009.4 |
| 20260504233730 | 19 | 227 | 6.4 | 14.5 | 0.00 | 0.00 | 0.00 | 44 | 1009.4 |
| 20260504233204 | 19 | 204 | 6.4 | 14.5 | 0.00 | 0.00 | 0.00 | 43 | 1009.4 |
| 20260504232704 | 20 | 197 | 3.2 | 8.0 | 0.00 | 0.00 | 0.00 | 44 | 1009.5 |
| 20260504232204 | 20 | 214 | 3.2 | 11.3 | 0.00 | 0.00 | 0.00 | 43 | 1009.4 |
| 20260504231705 | 20 | 214 | 4.8 | 16.1 | 0.00 | 0.00 | 0.00 | 41 | 1009.5 |
| 20260504231206 | 20 | 189 | 8.0 | 16.1 | 0.00 | 0.00 | 0.00 | 42 | 1009.4 |
| 20260504230704 | 20 | 240 | 4.8 | 14.5 | 0.00 | 0.00 | 0.00 | 42 | 1009.4 |
| 20260504230157 | 20 | 209 | 4.8 | 16.1 | 0.00 | 0.00 | 0.00 | 43 | 1009.3 |
| 20260504225656 | 20 | 182 | 8.0 | 17.7 | 0.00 | 0.00 | 0.00 | 41 | 1009.4 |
| 20260504225153 | 20 | 197 | 8.0 | 17.7 | 0.00 | 0.00 | 0.00 | 41 | 1009.4 |
| 20260504224655 | 20 | 183 | 3.2 | 16.1 | 0.00 | 0.00 | 0.00 | 41 | 1009.5 |
| 20260504224149 | 20 | 227 | 4.8 | 14.5 | 0.00 | 0.00 | 0.00 | 41 | 1009.4 |
| 20260504223648 | 20 | 179 | 6.4 | 16.1 | 0.00 | 0.00 | 0.00 | 42 | 1009.5 |
| 20260504223149 | 20 | 257 | 9.7 | 17.7 | 0.00 | 0.00 | 0.00 | 40 | 1009.4 |
| 20260504222648 | 21 | 206 | 8.0 | 17.7 | 0.00 | 0.00 | 0.00 | 39 | 1009.5 |
| 20260504222147 | 21 | 272 | 11.3 | 19.3 | 0.00 | 0.00 | 0.00 | 39 | 1009.5 |
| 20260504221646 | 21 | 276 | 11.3 | 19.3 | 0.00 | 0.00 | 0.00 | 39 | 1009.5 |
| 20260504221144 | 21 | 279 | 8.0 | 22.5 | 0.00 | 0.00 | 0.00 | 40 | 1009.6 |
| 20260504220637 | 21 | 172 | 9.7 | 22.5 | 0.00 | 0.00 | 0.00 | 41 | 1009.5 |
| 20260504220135 | 21 | 281 | 9.7 | 16.1 | 0.00 | 0.00 | 0.00 | 39 | 1009.5 |
| 20260504215932 | 21 | 235 | 9.7 | 17.7 | 0.00 | 0.00 | 0.00 | 39 | 1009.5 |
| 20260504215132 | 21 | 247 | 9.7 | 24.1 | 0.00 | 0.00 | 0.00 | 40 | 1009.7 |
| 20260504214631 | 21 | 206 | 11.3 | 24.1 | 0.00 | 0.00 | 0.00 | 40 | 1009.6 |
| 20260504214427 | 21 | 223 | 11.3 | 19.3 | 0.00 | 0.00 | 0.00 | 38 | 1009.6 |
| 20260504213951 | 21 | 252 | 8.0 | 19.3 | 0.00 | 0.00 | 0.00 | 38 | 1009.6 |
| 20260504213132 | -17 | 234 | 11.3 | 16.1 | 0.00 | 0.00 | 0.00 | 1009.6 | |
| 20260504212632 | -17 | 305 | 11.3 | 16.1 | 0.00 | 0.00 | 0.00 | 1009.7 | |
| 20260504212128 | 21 | 305 | 11.3 | 16.1 | 0.00 | 0.00 | 0.00 | 37 | 1009.6 |
| 20260504211628 | 21 | 279 | 9.7 | 17.7 | 0.00 | 0.00 | 0.00 | 37 | 1009.6 |
| 20260504211127 | 21 | 164 | 8.0 | 17.7 | 0.00 | 0.00 | 0.00 | 38 | 1009.6 |
| 20260504210628 | 21 | 281 | 8.0 | 17.7 | 0.00 | 0.00 | 0.00 | 40 | 1009.6 |
| 20260504210127 | 21 | 248 | 4.8 | 16.1 | 0.00 | 0.00 | 0.00 | 40 | 1009.6 |
| 20260504205628 | 21 | 190 | 8.0 | 20.9 | 0.00 | 0.00 | 0.00 | 38 | 1009.6 |
| 20260504205126 | 21 | 271 | 11.3 | 24.1 | 0.00 | 0.00 | 0.00 | 40 | 1009.6 |
| 20260504204627 | 21 | 193 | 8.0 | 25.7 | 0.00 | 0.00 | 0.00 | 39 | 1009.7 |
| 20260504204129 | 21 | 243 | 9.7 | 25.7 | 0.00 | 0.00 | 0.00 | 41 | 1009.7 |
| 20260504203627 | 21 | 234 | 11.3 | 24.1 | 0.00 | 0.00 | 0.00 | 37 | 1009.8 |
| 20260504203126 | 21 | 189 | 4.8 | 20.9 | 0.00 | 0.00 | 0.00 | 37 | 1009.7 |
| 20260504202626 | 21 | 212 | 9.7 | 17.7 | 0.00 | 0.00 | 0.00 | 40 | 1009.8 |
| 20260504202441 | 21 | 196 | 8.0 | 19.3 | 0.00 | 0.00 | 0.00 | 39 | 1009.8 |
| 20260504201627 | 21 | 200 | 11.3 | 22.5 | 0.00 | 0.00 | 0.00 | 38 | 1010.0 |
| 20260504201127 | 22 | 204 | 6.4 | 22.5 | 0.00 | 0.00 | 0.00 | 37 | 1009.9 |
| 20260504200935 | 22 | 207 | 8.0 | 17.7 | 0.00 | 0.00 | 0.00 | 37 | 1009.9 |
| 20260504200126 | 21 | 241 | 9.7 | 17.7 | 0.00 | 0.00 | 0.00 | 39 | 1010.0 |
| 20260504195626 | 21 | 221 | 6.4 | 9.7 | 0.00 | 0.00 | 0.00 | 39 | 1010.1 |
| 20260504195125 | 21 | 221 | 6.4 | 14.5 | 0.00 | 0.00 | 0.00 | 40 | 1010.1 |
| 20260504194625 | 21 | 199 | 8.0 | 20.9 | 0.00 | 0.00 | 0.00 | 41 | 1010.3 |
| 20260504194126 | 21 | 207 | 11.3 | 20.9 | 0.00 | 0.00 | 0.00 | 42 | 1010.2 |
| 20260504193758 | 21 | 210 | 9.7 | 17.7 | 0.00 | 0.00 | 0.00 | 40 | 1010.3 |
| 20260504193720 | 21 | 221 | 9.7 | 19.3 | 0.00 | 0.00 | 0.00 | 43 | 1010.3 |
| 20260504192625 | 21 | 240 | 8.0 | 17.7 | 0.00 | 0.00 | 0.00 | 41 | 1010.3 |
| 20260504192124 | 21 | 169 | 8.0 | 17.7 | 0.00 | 0.00 | 0.00 | 38 | 1010.4 |
| 20260504191624 | 21 | 226 | 8.0 | 19.3 | 0.00 | 0.00 | 0.00 | 38 | 1010.5 |
| 20260504191124 | 21 | 265 | 8.0 | 19.3 | 0.00 | 0.00 | 0.00 | 37 | 1010.5 |
| 20260504190626 | 21 | 199 | 6.4 | 22.5 | 0.00 | 0.00 | 0.00 | 40 | 1010.5 |
| 20260504190126 | 21 | 212 | 4.8 | 22.5 | 0.00 | 0.00 | 0.00 | 40 | 1010.6 |
| 20260504185623 | 21 | 127 | 9.7 | 19.3 | 0.00 | 0.00 | 0.00 | 42 | 1010.7 |
| 20260504185124 | 21 | 254 | 9.7 | 19.3 | 0.00 | 0.00 | 0.00 | 39 | 1010.7 |
| 20260504184625 | 21 | 188 | 6.4 | 17.7 | 0.00 | 0.00 | 0.00 | 40 | 1010.7 |
| 20260504184125 | 21 | 175 | 9.7 | 19.3 | 0.00 | 0.00 | 0.00 | 43 | 1010.8 |
| 20260504183623 | 21 | 275 | 9.7 | 19.3 | 0.00 | 0.00 | 0.00 | 37 | 1010.8 |
| 20260504183124 | 21 | 234 | 6.4 | 20.9 | 0.00 | 0.00 | 0.00 | 40 | 1010.9 |
| 20260504182950 | 21 | 147 | 8.0 | 20.9 | 0.00 | 0.00 | 0.00 | 39 | 1011.0 |
| 20260504182123 | 21 | 254 | 11.3 | 20.9 | 0.00 | 0.00 | 0.00 | 40 | 1011.1 |
| 20260504181624 | 21 | 172 | 12.9 | 20.9 | 0.00 | 0.00 | 0.00 | 41 | 1011.2 |
| 20260504181123 | 21 | 265 | 6.4 | 19.3 | 0.00 | 0.00 | 0.00 | 40 | 1011.3 |
| 20260504180624 | 21 | 244 | 8.0 | 19.3 | 0.00 | 0.00 | 0.00 | 38 | 1011.4 |
| 20260504180125 | 21 | 147 | 4.8 | 16.1 | 0.00 | 0.00 | 0.00 | 38 | 1011.3 |
| 20260504175944 | 21 | 199 | 8.0 | 17.7 | 0.00 | 0.00 | 0.00 | 36 | 1011.5 |
| 20260504175124 | 21 | 337 | 8.0 | 17.7 | 0.00 | 0.00 | 0.00 | 37 | 1011.6 |
| 20260504174625 | 20 | 296 | 8.0 | 19.3 | 0.00 | 0.00 | 0.00 | 44 | 1011.6 |
| 20260504174440 | 20 | 223 | 6.4 | 29.0 | 0.00 | 0.00 | 0.00 | 38 | 1011.6 |
| 20260504173624 | 20 | 275 | 9.7 | 29.0 | 0.00 | 0.00 | 0.00 | 43 | 1011.7 |
| 20260504173436 | 20 | 231 | 9.7 | 20.9 | 0.00 | 0.00 | 0.00 | 41 | 1011.8 |
| 20260504172624 | 20 | 268 | 8.0 | 17.7 | 0.00 | 0.00 | 0.00 | 48 | 1011.8 |
| 20260504172122 | 20 | 135 | 4.8 | 27.4 | 0.00 | 0.00 | 0.00 | 48 | 1011.8 |
| 20260504171622 | 20 | 114 | 12.9 | 27.4 | 0.00 | 0.00 | 0.00 | 40 | 1011.9 |
| 20260504171121 | 20 | 200 | 9.7 | 25.7 | 0.00 | 0.00 | 0.00 | 38 | 1012.1 |
| 20260504170623 | 20 | 279 | 11.3 | 25.7 | 0.00 | 0.00 | 0.00 | 42 | 1012.2 |
| 20260504170122 | 20 | 169 | 6.4 | 20.9 | 0.00 | 0.00 | 0.00 | 38 | 1012.1 |
| 20260504160122 | 20 | 226 | 11.3 | 19.3 | 0.00 | 0.00 | 0.00 | 37 | 1012.9 |
| 20260504151121 | -17 | 269 | 6.4 | 19.3 | 0.00 | 0.00 | 0.00 | 1013.4 | |
| 20260504150620 | -17 | 281 | 9.7 | 19.3 | 0.00 | 0.00 | 0.00 | 1013.2 | |
| 20260504150426 | 17 | 243 | 9.7 | 17.7 | 0.00 | 0.00 | 0.00 | 47 | 1013.3 |
| 20260504141119 | 16 | 227 | 6.4 | 19.3 | 0.00 | 0.00 | 0.00 | 56 | 1013.4 |
| 20260504140618 | 16 | 259 | 9.7 | 19.3 | 0.00 | 0.00 | 0.00 | 55 | 1013.4 |
| 20260504140119 | 16 | 248 | 6.4 | 14.5 | 0.00 | 0.00 | 0.00 | 56 | 1013.4 |
| 20260504130115 | 13 | 202 | 8.0 | 14.5 | 0.00 | 0.00 | 0.00 | 67 | 1013.9 |
| 20260504120117 | 11 | 200 | 6.4 | 16.1 | 0.00 | 0.00 | 0.00 | 76 | 1014.1 |
| 20260504110612 | 7 | 210 | 6.4 | 9.7 | 0.00 | 0.00 | 0.00 | 81 | 1014.2 |
| 20260504110113 | 7 | 207 | 3.2 | 8.0 | 0.00 | 0.00 | 0.00 | 82 | 1014.3 |
| 20260504100612 | 6 | 196 | 1.6 | 6.4 | 0.00 | 0.00 | 0.00 | 81 | 1014.4 |
| 20260504100418 | 6 | 204 | 3.2 | 6.4 | 0.00 | 0.00 | 0.00 | 81 | 1014.4 |
| 20260504081607 | 7 | 251 | 3.2 | 8.0 | 0.00 | 0.00 | 0.00 | 71 | 1014.3 |
| 20260504081106 | 7 | 241 | 3.2 | 8.0 | 0.00 | 0.00 | 0.00 | 71 | 1014.3 |
| 20260504080604 | 7 | 213 | 3.2 | 8.0 | 0.00 | 0.00 | 0.00 | 70 | 1014.3 |
| 20260504080104 | 8 | 240 | 3.2 | 8.0 | 0.00 | 0.00 | 0.00 | 70 | 1014.3 |